sat.trackr.live / text

‹ back to catalog

STARLINK-34133

NORAD 64143 · 2025-111W

PAYLOAD ACTIVE UNKNOWN

§ Identity

Operator
Country
US
Launch date
2025-05-24
Launch site
AFETR
Launch vehicle
Mass (kg)
RCS (m²)

Purposes: comms

External: N2YO · Heavens-Above · Gunter

§ Orbital elements

Epoch: 2026-05-24T23:25:51.831840Z

Period
94.27 min
Inclination
43.0009°
Eccentricity
0.0001460
Mean motion
15.27585878 rev/d
Perigee alt
482.0 km
Apogee alt
484.0 km
Semi-major
6,861.2 km
B*
7.7832e-4
RAAN
6.7661°
Arg perigee
270.4446°
Mean anomaly
89.6238°
Rev number
5,713

§ Raw data

STARLINK-341331 64143U 25111W   26144.97629435  .00021221  00000+0  77832-3 0  99972 64143  43.0009   6.7661 0001460 270.4446  89.6238 15.27585878 57138

JSON: /api/v1/satellites/64143 · /tle

For live sub-satellite position, see the globe view (requires WebGL).

§ Visibility from observer

Set your observer location to see the next 7 days of passes ≥ 10°. The values pass through the URL so the page stays shareable.

No JS? Fill the form by hand. The geolocation button needs JavaScript.